Estación de Lebu INIA

Ultimos registro cada 15 minutos 57
Estación Fecha / Hora Temperatura Humedad Lluvia Velocidad Dirección Radiación Presion
57 Lebu INIA 09-05-2026 14:00 13,7 55,7 0 4,4 199 529 1099
56 Lebu INIA 09-05-2026 13:45 13,6 53,8 0 4,7 198 545 1095
55 Lebu INIA 09-05-2026 13:30 13,2 53,3 0 4,6 203 555 1088
54 Lebu INIA 09-05-2026 13:15 13,2 57,1 0 3,8 208 563 1097
53 Lebu INIA 09-05-2026 13:00 13,4 61,4 0 3,6 202 570 1094
52 Lebu INIA 09-05-2026 12:45 13,4 49,2 0 4,1 190 575 1100
51 Lebu INIA 09-05-2026 12:30 13 47,5 0 4,1 192 573 1098
50 Lebu INIA 09-05-2026 12:15 12,6 47,4 0 4,2 191 568 1095
49 Lebu INIA 09-05-2026 12:00 12,2 51,2 0 4,6 191 541 1095
48 Lebu INIA 09-05-2026 11:45 11,8 54,3 0 4,8 189 545 1097
47 Lebu INIA 09-05-2026 11:30 11,4 56,9 0 4,8 185 533 1101
46 Lebu INIA 09-05-2026 11:15 11 54,7 0 5,1 190 513 1103
45 Lebu INIA 09-05-2026 11:00 10,6 53,4 0 5,7 184 490 1107
44 Lebu INIA 09-05-2026 10:45 10,2 58,6 0 4,7 182 464 1107
43 Lebu INIA 09-05-2026 10:30 10 55,4 0 4,3 183 435 1106
42 Lebu INIA 09-05-2026 10:15 9,5 57,2 0 4,6 185 404 1113
41 Lebu INIA 09-05-2026 10:00 9,2 59,1 0 4,4 189 369 0
40 Lebu INIA 09-05-2026 09:45 8,7 58,7 0 5,2 184 332 0
39 Lebu INIA 09-05-2026 09:30 8,4 61,4 0 4,5 184 293 1104
38 Lebu INIA 09-05-2026 09:15 8,1 61,4 0 4,4 187 252 1113
37 Lebu INIA 09-05-2026 09:00 7,7 59,8 0 4,4 192 209 1120
36 Lebu INIA 09-05-2026 08:45 7,5 62,1 0 4,6 192 156 1115
35 Lebu INIA 09-05-2026 08:30 7,4 62,6 0 4,7 196 104 1116
34 Lebu INIA 09-05-2026 08:15 7,2 61,9 0 4,9 189 21 1118
33 Lebu INIA 09-05-2026 08:00 7 62,8 0 4,6 186 8 1118
32 Lebu INIA 09-05-2026 07:45 6,8 64,3 0 4,5 186 3 1121
31 Lebu INIA 09-05-2026 07:30 6,8 64,8 0 4,2 190 0 1117
30 Lebu INIA 09-05-2026 07:15 6,8 65,9 0 4,1 195 0 1115
29 Lebu INIA 09-05-2026 07:00 6,8 66,3 0 3,8 196 0 1120
28 Lebu INIA 09-05-2026 06:45 6,9 64,6 0 4 195 0 1119
27 Lebu INIA 09-05-2026 06:30 6,9 65,4 0 4 195 0 1119
26 Lebu INIA 09-05-2026 06:15 6,8 66,7 0 3,8 194 0 1117
25 Lebu INIA 09-05-2026 06:00 6,8 67,5 0 4,1 192 0 1116
24 Lebu INIA 09-05-2026 05:45 6,7 68,6 0 4 187 0 1115
23 Lebu INIA 09-05-2026 05:30 6,8 69,4 0 4 184 0 1115
22 Lebu INIA 09-05-2026 05:15 7,1 68,5 0 4,4 186 0 1117
21 Lebu INIA 09-05-2026 05:00 7,2 67 0 4,4 185 0 1118
20 Lebu INIA 09-05-2026 04:45 7,3 67,4 0 3,8 182 0 1117
19 Lebu INIA 09-05-2026 04:30 7,4 65 0 4,1 180 0 1120
18 Lebu INIA 09-05-2026 04:15 7,5 66,5 0 3,6 177 0 1114
17 Lebu INIA 09-05-2026 04:00 7,6 65,3 0 4,3 172 0 1119
16 Lebu INIA 09-05-2026 03:45 7,2 66,8 0 4,1 174 0 1115
15 Lebu INIA 09-05-2026 03:30 7,1 72,1 0 3,3 178 0 1116
14 Lebu INIA 09-05-2026 03:15 7 73,8 0 3,2 182 0 1116
13 Lebu INIA 09-05-2026 03:00 7,1 74,9 0 2,9 178 0 1116
12 Lebu INIA 09-05-2026 02:45 7,1 73,9 0 3,4 186 0 1121
11 Lebu INIA 09-05-2026 02:30 7,3 75,3 0 3,1 183 0 1117
10 Lebu INIA 09-05-2026 02:15 7,4 74,9 0 3,3 181 0 1115
9 Lebu INIA 09-05-2026 02:00 7,6 74,6 0 3,4 173 0 1118
8 Lebu INIA 09-05-2026 01:45 7,8 74,6 0 4 179 0 1118
7 Lebu INIA 09-05-2026 01:30 7,9 74,4 0 4,3 179 0 1117
6 Lebu INIA 09-05-2026 01:15 7,9 74,7 0 3,8 176 0 1118
5 Lebu INIA 09-05-2026 01:00 7,8 77 0 3,4 180 0 1121
4 Lebu INIA 09-05-2026 00:45 7,9 78,7 0 3,8 179 0 1118
3 Lebu INIA 09-05-2026 00:30 8 79,3 0 3,9 185 0 1116
2 Lebu INIA 09-05-2026 00:15 8,3 80,3 0 4 182 0 1116
1 Lebu INIA 09-05-2026 00:00 8,4 80 0 4,1 181 0 0